User: anonymous   Login
Location: Unspecified
(0.0000°N, 0.0000°E)
Time: 04:38:34
(UTC+00:00)
Language:

SWISSCUBE - Orbit

View from above orbital plane
View from above orbital plane
View from above satellite
View from above satellite

Ground track
Ground track

The orbit data is extracted from the following two-line orbital elements,

1 35932U 09051B   16042.87525377  .00000657  00000-0  16099-3 0  9990
2 35932  98.4303 168.5916 0006877 328.6429  31.4357 14.55710990338838
Epoch (UTC): 11 February 2016 21:00:21
Eccentricity: 0.0006877
inclination: 98.4303°
perigee height: 702 km
apogee height: 712 km
right ascension of ascending node: 168.5916°
argument of perigee: 328.6429°
revolutions per day: 14.55710990
mean anomaly at epoch: 31.4357°
orbit number at epoch: 33883

The dashed part of the orbit path shows where the satellite is in the earth's shadow,  

DLR